Satellite-Ground Cal/Val Region Overpasses Predictions

Prediction of Satellite NPP Overpassing Cal/Val Region: PacNW

Region Location: (Latitude: 10.00, Longitude: 139.50) to (Latitude: 22.70, Longitude: 165.60).

Table of predicted overpasses for the next 14.0 days since TLE Epoch: 3/16/2018
Interval Starting Time Starting Location Ending Time Ending Location
1 03/17/2018 03:10:41 ( 10.01, 152.00) 03/17/2018 03:14:17 ( 22.69, 148.99)
2 03/17/2018 15:42:35 ( 22.65, 149.23) 03/17/2018 15:46:10 ( 10.03, 146.23)
3 03/18/2018 02:51:40 ( 10.00, 156.76) 03/18/2018 02:55:16 ( 22.69, 153.74)
4 03/18/2018 15:23:33 ( 22.65, 153.99) 03/18/2018 15:27:08 ( 10.03, 150.98)
5 03/19/2018 02:32:38 ( 10.00, 161.52) 03/19/2018 02:36:14 ( 22.68, 158.50)
6 03/19/2018 15:04:32 ( 22.66, 158.74) 03/19/2018 15:08:07 ( 10.03, 155.74)
7 03/20/2018 02:14:27 ( 12.94, 165.60) 03/20/2018 02:17:13 ( 22.68, 163.26)
8 03/20/2018 03:55:07 ( 10.01, 140.90) 03/20/2018 03:56:49 ( 16.00, 139.51)
9 03/20/2018 14:45:31 ( 22.66, 163.50) 03/20/2018 14:49:06 ( 10.04, 160.50)
10 03/21/2018 03:36:05 ( 10.01, 145.65) 03/21/2018 03:39:41 ( 22.69, 142.64)
11 03/21/2018 14:29:39 ( 11.51, 165.59) 03/21/2018 14:30:04 ( 10.04, 165.25)
12 03/21/2018 16:07:59 ( 22.65, 142.88) 03/21/2018 16:11:34 ( 10.03, 139.88)
13 03/22/2018 03:17:04 ( 10.00, 150.41) 03/22/2018 03:20:40 ( 22.69, 147.39)
14 03/22/2018 15:48:58 ( 22.65, 147.63) 03/22/2018 15:52:33 ( 10.03, 144.63)
15 03/23/2018 02:58:02 ( 10.00, 155.17) 03/23/2018 03:01:38 ( 22.69, 152.15)
16 03/23/2018 15:29:56 ( 22.65, 152.39) 03/23/2018 15:33:31 ( 10.03, 149.39)
17 03/24/2018 02:39:01 ( 10.00, 159.92) 03/24/2018 02:42:37 ( 22.69, 156.90)
18 03/24/2018 15:10:55 ( 22.66, 157.15) 03/24/2018 15:14:30 ( 10.04, 154.14)
19 03/25/2018 02:19:59 ( 10.00, 164.68) 03/25/2018 02:23:35 ( 22.69, 161.66)
20 03/25/2018 14:51:53 ( 22.66, 161.90) 03/25/2018 14:55:28 ( 10.04, 158.90)
21 03/26/2018 03:42:28 ( 10.01, 144.06) 03/26/2018 03:46:04 ( 22.69, 141.04)
22 03/26/2018 14:34:06 ( 18.32, 165.59) 03/26/2018 14:36:27 ( 10.04, 163.66)
23 03/26/2018 16:14:22 ( 22.65, 141.28) 03/26/2018 16:16:27 ( 15.32, 139.51)
24 03/27/2018 03:23:26 ( 10.01, 148.81) 03/27/2018 03:27:02 ( 22.69, 145.80)
25 03/27/2018 15:55:20 ( 22.65, 146.04) 03/27/2018 15:58:55 ( 10.03, 143.04)
26 03/28/2018 03:04:25 ( 10.01, 153.57) 03/28/2018 03:08:01 ( 22.70, 150.55)
27 03/28/2018 15:36:19 ( 22.65, 150.80) 03/28/2018 15:39:54 ( 10.03, 147.79)
28 03/29/2018 02:45:24 ( 10.01, 158.33) 03/29/2018 02:49:00 ( 22.70, 155.31)
29 03/29/2018 15:17:17 ( 22.65, 155.55) 03/29/2018 15:20:52 ( 10.03, 152.55)
30 03/30/2018 02:26:22 ( 10.02, 163.08) 03/30/2018 02:29:58 ( 22.70, 160.06)


NCC Satellite Cal/Val Overpasses Prediction Service
